• In Österreich
  • Länderverzeichnis
  • Für 7 Tage
  • Wassertemperatur
  • Satellitenkarten
  • Wetterkarte
  • News
  • Widgets
  • user-avatar
    Anmelden

    Stündliche Wetter München

    Heute, 23 September, Sonntag

    Zeit Temperatur Niederschläge Wind Luftdruck Luftfeuchtigkeit
    00:00 +13°C° 0.3 mm 1 m/S 719 mmHg 83%
    01:00 +13°C° 0.3 mm 1 m/S 719 mmHg 86%
    02:00 +13°C° 0.4 mm 1 m/S 718 mmHg 88%
    03:00 +13°C° 0.4 mm 1 m/S 718 mmHg 90%
    04:00 +13°C° 0.4 mm 2 m/S 718 mmHg 92%
    05:00 +13°C° 1 mm 2 m/S 717 mmHg 93%
    06:00 +13°C° 1 mm 2 m/S 717 mmHg 93%
    07:00 +14°C° 1 mm 2 m/S 717 mmHg 94%
    08:00 +14°C° 0.3 mm 3 m/S 717 mmHg 91%
    09:00 +17°C° 0.3 mm 4 m/S 716 mmHg 88%
    10:00 +17°C° 0.3 mm 5 m/S 716 mmHg 85%
    11:00 +20°C° 0.1 mm 6 m/S 716 mmHg 79%
    12:00 +22°C° 0.1 mm 6 m/S 716 mmHg 73%
    13:00 +24°C° 0.1 mm 7 m/S 715 mmHg 66%
    14:00 +24°C° 0 mm 6 m/S 714 mmHg 66%
    15:00 +24°C° 0 mm 6 m/S 714 mmHg 66%
    16:00 +24°C° 0 mm 6 m/S 713 mmHg 66%
    17:00 +23°C° 0.3 mm 6 m/S 713 mmHg 70%
    18:00 +22°C° 0.3 mm 6 m/S 712 mmHg 73%
    19:00 +21°C° 0.3 mm 6 m/S 712 mmHg 77%
    20:00 +20°C° 2.1 mm 7 m/S 712 mmHg 81%
    21:00 +18°C° 2.1 mm 7 m/S 713 mmHg 84%
    22:00 +17°C° 2.1 mm 8 m/S 713 mmHg 87%
    23:00 +14°C° 3 mm 7 m/S 715 mmHg 89%

    Morgen, 24 September, Montag

    Zeit Temperatur Niederschläge Wind Luftdruck Luftfeuchtigkeit
    00:00 +11°C° 3 mm 6 m/S 716 mmHg 91%
    01:00 +8°C° 3 mm 5 m/S 717 mmHg 93%
    02:00 +8°C° 0.4 mm 5 m/S 719 mmHg 93%
    03:00 +7°C° 0.4 mm 4 m/S 720 mmHg 93%
    04:00 +7°C° 0.4 mm 4 m/S 721 mmHg 93%
    05:00 +7°C° 0.2 mm 4 m/S 722 mmHg 93%
    06:00 +8°C° 0.2 mm 3 m/S 723 mmHg 94%
    07:00 +7°C° 0.2 mm 3 m/S 723 mmHg 94%
    08:00 +8°C° 0.1 mm 3 m/S 724 mmHg 90%
    09:00 +8°C° 0.1 mm 4 m/S 725 mmHg 85%
    10:00 +8°C° 0.1 mm 4 m/S 725 mmHg 81%
    11:00 +10°C° 0.1 mm 4 m/S 725 mmHg 75%
    12:00 +11°C° 0.1 mm 4 m/S 725 mmHg 69%
    13:00 +12°C° 0.1 mm 4 m/S 726 mmHg 63%
    14:00 +12°C° 0.1 mm 3 m/S 726 mmHg 62%
    15:00 +12°C° 0.1 mm 3 m/S 725 mmHg 60%
    16:00 +12°C° 0.1 mm 3 m/S 725 mmHg 59%
    17:00 +10°C° 0 mm 2 m/S 726 mmHg 64%
    18:00 +9°C° 0 mm 2 m/S 726 mmHg 68%
    19:00 +8°C° 0 mm 1 m/S 727 mmHg 73%
    20:00 +8°C° 0 mm 1 m/S 727 mmHg 75%
    21:00 +7°C° 0 mm 1 m/S 728 mmHg 77%
    22:00 +6°C° 0 mm 1 m/S 728 mmHg 79%
    23:00 +6°C° 0 mm 1 m/S 728 mmHg 81%

    übermorgen, 25 September, Dienstag

    Zeit Temperatur Niederschläge Wind Luftdruck Luftfeuchtigkeit
    00:00 +6°C° 0 mm 1 m/S 728 mmHg 83%
    01:00 +5°C° 0 mm 1 m/S 728 mmHg 85%
    02:00 +5°C° 0 mm 1 m/S 728 mmHg 87%
    03:00 +5°C° 0 mm 1 m/S 728 mmHg 89%
    04:00 +3°C° 0 mm 0 m/S 728 mmHg 90%
    05:00 +5°C° 0 mm 1 m/S 729 mmHg 89%
    06:00 +5°C° 0 mm 1 m/S 729 mmHg 88%
    07:00 +5°C° 0 mm 1 m/S 729 mmHg 88%
    08:00 +7°C° 0 mm 1 m/S 729 mmHg 79%
    09:00 +8°C° 0 mm 2 m/S 729 mmHg 70%
    10:00 +9°C° 0 mm 3 m/S 729 mmHg 61%
    11:00 +10°C° 0 mm 3 m/S 729 mmHg 57%
    12:00 +11°C° 0 mm 3 m/S 729 mmHg 53%
    13:00 +12°C° 0 mm 3 m/S 728 mmHg 50%
    14:00 +12°C° 0 mm 3 m/S 728 mmHg 51%
    15:00 +12°C° 0 mm 3 m/S 728 mmHg 53%
    16:00 +11°C° 0 mm 3 m/S 728 mmHg 54%
    17:00 +9°C° 0 mm 3 m/S 728 mmHg 60%
    18:00 +8°C° 0 mm 3 m/S 728 mmHg 66%
    19:00 +6°C° 0 mm 2 m/S 728 mmHg 72%
    20:00 +5°C° 0 mm 2 m/S 728 mmHg 73%
    21:00 +5°C° 0 mm 2 m/S 728 mmHg 75%
    22:00 +4°C° 0 mm 2 m/S 728 mmHg 76%
    23:00 +4°C° 0 mm 2 m/S 728 mmHg 78%

    26 September, Mittwoch

    Zeit Temperatur Niederschläge Wind Luftdruck Luftfeuchtigkeit
    00:00 +3°C° 0 mm 2 m/S 728 mmHg 79%
    01:00 +3°C° 0 mm 2 m/S 728 mmHg 80%
    02:00 +3°C° 0 mm 2 m/S 728 mmHg 81%
    03:00 +3°C° 0 mm 2 m/S 727 mmHg 81%
    04:00 +2°C° 0 mm 2 m/S 727 mmHg 81%
    05:00 +3°C° 0 mm 2 m/S 727 mmHg 80%
    06:00 +3°C° 0 mm 2 m/S 727 mmHg 79%
    07:00 +4°C° 0 mm 1 m/S 727 mmHg 78%
    08:00 +7°C° 0 mm 1 m/S 727 mmHg 70%
    09:00 +11°C° 0 mm 1 m/S 727 mmHg 62%
    10:00 +14°C° 0 mm 1 m/S 727 mmHg 54%
    11:00 +15°C° 0 mm 1 m/S 727 mmHg 52%
    12:00 +18°C° 0 mm 1 m/S 727 mmHg 49%
    13:00 +19°C° 0 mm 1 m/S 727 mmHg 47%
    14:00 +19°C° 0 mm 1 m/S 727 mmHg 50%
    15:00 +19°C° 0 mm 1 m/S 726 mmHg 53%
    16:00 +19°C° 0 mm 1 m/S 726 mmHg 56%
    17:00 +16°C° 0 mm 1 m/S 726 mmHg 64%
    18:00 +14°C° 0 mm 1 m/S 726 mmHg 72%
    19:00 +11°C° 0 mm 1 m/S 726 mmHg 80%
    20:00 +11°C° 0 mm 1 m/S 726 mmHg 81%
    21:00 +11°C° 0 mm 1 m/S 726 mmHg 82%
    22:00 +10°C° 0 mm 1 m/S 727 mmHg 83%
    23:00 +10°C° 0 mm 1 m/S 726 mmHg 84%

    27 September, Donnerstag

    Zeit Temperatur Niederschläge Wind Luftdruck Luftfeuchtigkeit
    00:00 +10°C° 0 mm 1 m/S 726 mmHg 84%
    01:00 +10°C° 0 mm 1 m/S 726 mmHg 84%
    02:00 +9°C° 0 mm 1 m/S 726 mmHg 83%
    03:00 +9°C° 0 mm 1 m/S 726 mmHg 83%
    04:00 +9°C° 0 mm 1 m/S 726 mmHg 83%
    05:00 +9°C° 0 mm 1 m/S 726 mmHg 82%
    06:00 +9°C° 0 mm 1 m/S 726 mmHg 81%
    07:00 +9°C° 0 mm 1 m/S 726 mmHg 80%
    08:00 +12°C° 0 mm 1 m/S 726 mmHg 73%
    09:00 +15°C° 0 mm 1 m/S 726 mmHg 66%
    10:00 +19°C° 0 mm 1 m/S 726 mmHg 59%
    11:00 +20°C° 0 mm 1 m/S 726 mmHg 56%
    12:00 +22°C° 0 mm 1 m/S 726 mmHg 53%
    13:00 +23°C° 0 mm 1 m/S 725 mmHg 50%
    14:00 +23°C° 0 mm 1 m/S 725 mmHg 52%
    15:00 +22°C° 0 mm 1 m/S 725 mmHg 55%
    16:00 +20°C° 0 mm 0 m/S 724 mmHg 57%
    17:00 +20°C° 0 mm 1 m/S 724 mmHg 65%
    18:00 +16°C° 0 mm 1 m/S 724 mmHg 74%
    19:00 +14°C° 0 mm 1 m/S 723 mmHg 82%
    20:00 +13°C° 0 mm 1 m/S 723 mmHg 83%
    21:00 +13°C° 0 mm 1 m/S 723 mmHg 85%
    22:00 +12°C° 0 mm 1 m/S 723 mmHg 86%
    23:00 +12°C° 0 mm 1 m/S 723 mmHg 86%

    28 September, Freitag

    Zeit Temperatur Niederschläge Wind Luftdruck Luftfeuchtigkeit
    00:00 +12°C° 0 mm 1 m/S 723 mmHg 85%
    01:00 +12°C° 0 mm 1 m/S 722 mmHg 85%
    02:00 +11°C° 0 mm 1 m/S 722 mmHg 84%
    03:00 +11°C° 0 mm 1 m/S 721 mmHg 84%
    04:00 +11°C° 0 mm 1 m/S 721 mmHg 83%
    05:00 +11°C° 0 mm 1 m/S 721 mmHg 82%
    06:00 +11°C° 0 mm 1 m/S 721 mmHg 81%
    07:00 +11°C° 0 mm 1 m/S 721 mmHg 80%
    08:00 +14°C° 0 mm 1 m/S 720 mmHg 73%
    09:00 +18°C° 0 mm 1 m/S 720 mmHg 65%
    10:00 +20°C° 0 mm 1 m/S 720 mmHg 58%
    11:00 +22°C° 0 mm 1 m/S 720 mmHg 55%
    12:00 +23°C° 0 mm 1 m/S 720 mmHg 53%
    13:00 +24°C° 0 mm 1 m/S 719 mmHg 50%
    14:00 +24°C° 0 mm 1 m/S 719 mmHg 54%
    15:00 +24°C° 0 mm 1 m/S 718 mmHg 57%
    16:00 +23°C° 0 mm 1 m/S 718 mmHg 60%
    17:00 +21°C° 0 mm 1 m/S 718 mmHg 67%
    18:00 +19°C° 0 mm 1 m/S 717 mmHg 75%
    19:00 +15°C° 0 mm 1 m/S 717 mmHg 82%
    20:00 +15°C° 0 mm 1 m/S 717 mmHg 83%
    21:00 +15°C° 0 mm 2 m/S 717 mmHg 84%
    22:00 +14°C° 0 mm 2 m/S 717 mmHg 85%
    23:00 +14°C° 0 mm 2 m/S 716 mmHg 83%
    Mehr zeigen